Temp_Advection
nan nan nan nan nan nan nan nan nan nan nan nan nan nan nan nan nan nan nan nan nan nan nan nan nan nan nan nan nan nan nan nan nan nan nan nan nan nan nan nan nan nan nan nan
nan 0 -0 -0 0 0 0 0 0 -0 -0 0 0 -1 -0 0 0 0 -0 -0 -0 -1 -0 -0 -0 0 -0 -1 -1 -1 -1 -1 -1 -0 -1 -1 -1 -1 -0 -1 -0 0 0 nan
nan 0 -0 -0 -0 0 0 -0 0 0 -0 -0 -0 -1 -0 0 0 0 -0 -0 -0 -0 -0 -0 -0 -0 0 -0 -1 -2 -2 -1 -1 -1 -1 -1 -1 -0 -0 -0 -1 -1 0 nan
nan 0 -0 -0 -0 0 -0 -0 0 0 -0 -0 0 -0 -0 -0 0 -0 -1 0 0 0 0 -0 -0 -0 1 1 0 0 -1 -1 -1 -1 -1 -1 -1 -1 -0 -0 -0 -1 -0 nan
nan -0 -0 -0 -0 -0 0 0 0 0 -0 -0 0 0 -1 -0 -0 -0 -0 -0 0 0 0 0 -0 -0 -0 0 0 1 1 0 -0 -0 -1 -1 -1 -0 -0 -0 -0 -0 -0 nan
nan 0 -0 -0 -0 0 0 -0 -0 -0 -0 -0 -0 -0 -0 -0 -0 -0 -0 -0 0 0 0 0 0 0 0 1 0 0 1 1 1 -0 -0 -0 -1 -0 -0 -0 -0 -0 -0 nan
nan -0 -0 0 -0 -0 -1 -0 -0 -0 -0 -0 0 0 -1 -0 0 -0 -0 -0 0 0 0 0 0 1 0 0 1 0 0 0 1 0 -0 -0 -0 -0 -0 -0 -0 -0 -0 nan
nan -0 -0 0 -0 -0 0 -0 -0 -0 0 -0 -0 -0 -1 -0 0 -0 0 -0 0 0 0 0 0 1 1 0 0 -0 0 -0 -0 0 0 0 -0 -0 -0 -0 -0 -0 -0 nan
nan -0 -0 -0 -0 -0 -0 0 -0 -0 -0 0 -0 -1 -1 0 0 -0 -0 -1 -0 1 0 0 0 1 1 1 0 0 -0 -0 -0 -0 -0 -0 -0 -0 -0 -0 -0 0 0 nan
nan -0 -0 0 0 0 0 -0 -0 0 0 0 0 -0 -0 -0 -0 0 0 -1 -0 0 1 0 0 0 0 0 0 0 0 -0 -0 -0 -0 -0 -0 -0 0 0 0 0 0 nan
nan -0 -0 0 0 0 0 -0 -0 -0 -0 0 0 0 -0 -1 -0 0 -0 -0 0 0 1 0 0 0 0 0 0 0 0 0 0 -0 -0 -0 -0 0 -0 -0 -0 -0 -0 nan
nan -0 -0 -1 -0 -0 -0 -0 -0 0 0 0 0 -1 -0 -0 -0 -0 -1 -0 0 0 1 1 0 0 0 0 0 0 0 0 0 0 -0 -0 -0 -0 -0 -0 -0 0 -0 nan
nan 0 0 -0 -0 -0 0 0 -0 -0 -0 0 0 -1 -0 0 -0 -0 -0 -1 -0 1 1 1 0 0 0 0 0 0 0 0 0 0 0 0 0 -0 -0 -0 -0 -0 0 nan
nan 0 -0 0 -0 0 0 0 0 -0 -0 -0 -1 -2 -1 1 0 -1 -1 0 0 1 1 1 0 0 0 0 0 0 0 0 0 0 0 0 0 -0 -0 -0 -0 -0 -0 nan
nan 0 0 -0 -0 -0 -0 -0 1 -0 -1 -0 -0 -0 -1 1 0 -1 -2 -1 -1 -0 1 1 0 0 0 0 0 0 0 0 0 0 0 0 0 0 -0 -0 -0 -0 -0 nan
nan 0 0 -0 -0 0 -0 -0 -0 -1 -0 -0 -0 -2 -2 -0 1 0 -1 -1 -0 -1 0 1 1 0 0 0 0 0 0 0 0 0 0 0 0 0 0 0 0 -0 -0 nan
nan 0 -0 -0 -0 -0 -0 -0 -0 0 -0 -0 -0 -1 0 0 -0 -2 -1 0 -0 -0 0 0 0 1 1 1 0 0 0 0 0 0 0 0 0 0 0 0 0 0 0 nan
nan -0 -0 0 -0 -0 -0 0 -0 -0 -0 -0 -0 -0 -0 -1 -1 -0 0 0 -0 -0 0 0 0 0 1 1 0 0 0 0 0 0 0 0 0 0 0 0 0 0 0 nan
nan -0 0 0 -0 -1 -1 0 -0 -0 -0 -0 -0 -1 -0 0 -1 -3 -1 1 0 -0 -1 -0 0 0 0 1 1 1 0 0 0 0 0 0 0 0 0 0 0 0 0 nan
nan 0 0 -0 -0 -1 -0 0 -0 -0 0 0 -0 -0 -0 0 0 -1 -2 0 1 0 -0 -0 -0 0 0 1 1 0 0 0 0 1 0 0 0 0 0 0 0 0 0 nan
nan 0 0 -0 -0 -1 -1 -1 -0 0 -0 0 0 1 0 -0 -3 -1 1 0 0 1 0 -0 -0 0 0 1 1 1 0 0 1 1 0 0 0 0 0 0 0 0 0 nan
nan -0 -0 -0 -0 -1 -1 0 -0 -1 -0 -0 -0 0 0 -0 0 0 0 1 1 0 0 0 0 0 0 1 1 0 0 1 1 0 0 0 0 0 0 0 0 0 0 nan
nan -0 -0 -0 -1 -1 -0 -2 -1 1 -0 -1 -0 -1 0 -1 -1 -0 0 1 1 1 0 0 0 0 1 0 0 -0 1 1 0 0 1 1 0 0 0 0 0 0 0 nan
nan -0 0 0 -1 -0 -3 -1 -1 -1 -0 -1 -0 -0 1 0 -1 -1 -0 0 0 1 1 1 0 0 0 1 0 1 1 1 0 1 1 1 0 0 0 0 0 0 0 nan
nan -0 -0 -0 -2 -1 -1 -2 -1 -1 -1 -1 -1 -1 0 -0 -1 -0 -0 1 1 1 1 1 1 0 0 0 0 1 1 1 1 1 1 0 0 0 0 0 0 0 0 nan
nan nan nan nan nan nan nan nan nan nan nan nan nan nan nan nan nan nan nan nan nan nan nan nan nan nan nan nan nan nan nan nan nan nan nan nan nan nan nan nan nan nan nan nan
Wind_Speed
7 8 2 1 2 3 3 1 4 5 3 7 5 15 19 25 18 6 7 6 9 16 21 23 22 19 21 21 24 26 28 29 28 26 29 28 29 28 30 28 33 30 28 28
6 3 2 1 1 2 0 3 5 7 3 4 7 18 15 10 3 7 5 6 13 19 17 16 18 20 26 28 30 30 29 31 31 28 26 26 26 27 26 28 28 35 29 28
5 2 1 2 3 2 2 2 3 6 7 3 8 7 3 0 3 6 8 8 13 12 14 17 22 24 29 33 36 34 30 28 28 25 24 23 24 24 24 25 25 28 30 27
3 0 1 1 2 1 3 2 3 5 5 3 4 4 5 4 6 8 15 12 11 11 13 19 21 25 28 31 34 34 29 22 19 19 19 21 21 21 23 23 23 21 21 25
3 3 1 1 1 1 5 2 3 2 0 4 1 3 7 3 6 9 10 10 9 10 12 17 21 23 26 30 31 28 25 19 15 12 16 20 20 20 21 20 21 18 17 20
2 0 2 2 2 3 4 3 2 1 2 3 4 4 6 4 6 4 4 9 10 11 13 16 19 22 24 24 24 24 20 19 18 17 12 10 18 21 21 20 14 14 15 14
4 2 1 2 2 3 6 5 3 5 4 4 3 2 10 7 7 7 10 12 10 12 14 17 18 20 19 23 24 21 18 18 16 17 8 6 9 12 16 17 14 15 16 20
3 5 4 4 4 4 2 4 4 3 2 5 2 5 6 4 8 11 13 15 15 14 13 15 16 18 16 19 22 20 18 17 16 15 10 8 7 7 11 11 12 13 15 17
2 4 1 4 3 4 0 1 3 2 3 3 3 7 9 4 7 11 16 14 17 15 13 14 15 16 15 16 16 19 17 15 13 11 9 8 7 6 5 6 8 7 9 8
1 4 3 1 1 1 3 2 2 2 2 5 5 6 6 5 5 4 7 12 15 13 13 13 14 14 12 13 13 13 16 16 14 10 7 5 3 2 2 3 4 5 7 8
1 3 5 2 5 7 2 2 2 2 4 3 4 7 7 7 5 6 8 10 13 14 14 13 13 12 12 12 12 12 12 14 11 8 4 3 2 1 1 2 3 2 2 4
2 3 4 9 3 5 4 6 5 4 4 3 2 8 4 8 7 6 12 13 15 17 17 15 13 12 10 11 10 10 11 11 11 9 5 4 2 1 1 3 6 8 7 9
4 1 4 6 5 3 4 5 4 3 2 6 4 7 2 4 7 11 13 18 27 23 20 18 16 14 11 9 10 8 7 7 7 7 7 6 4 3 4 4 5 4 6 8
4 3 7 6 5 3 5 5 6 6 4 4 12 15 22 13 12 17 25 31 26 26 22 22 18 16 13 10 9 9 7 5 5 5 4 4 3 3 3 5 6 6 5 6
3 5 4 8 14 13 17 17 14 13 10 9 4 12 25 12 10 18 28 33 26 19 17 24 22 17 14 12 10 9 8 7 5 5 5 5 5 6 6 6 6 7 7 7
2 4 2 6 10 7 14 17 18 21 22 23 27 30 30 38 34 25 29 24 21 21 20 22 23 20 18 14 12 10 10 8 8 7 7 7 8 8 7 7 6 7 8 9
5 3 4 5 6 11 10 9 13 6 6 17 16 23 14 15 11 19 25 17 22 28 26 23 23 23 18 16 13 13 11 10 9 8 7 7 8 8 9 9 9 9 9 9
5 5 3 4 7 3 6 6 7 11 9 18 11 17 16 16 18 20 23 27 25 18 21 20 21 22 19 17 16 15 15 13 12 11 10 9 8 8 8 9 9 9 9 9
9 4 2 3 2 10 8 1 5 6 9 12 20 20 27 16 16 34 22 17 12 19 25 21 18 18 20 19 17 17 17 16 15 13 11 9 8 8 9 9 10 10 10 10
5 4 6 2 3 6 5 2 3 4 6 4 13 13 10 5 3 7 17 9 17 21 22 19 17 18 20 22 20 20 19 18 16 13 11 10 9 9 10 10 10 10 10 10
4 2 12 8 4 9 12 12 3 1 7 6 5 18 7 6 13 19 10 15 21 24 21 19 17 17 17 20 21 20 19 20 14 15 13 11 10 10 11 11 10 10 10 10
8 7 4 5 6 11 15 5 8 6 4 6 10 15 18 25 26 25 25 27 26 26 21 19 19 17 15 20 22 21 22 16 17 16 15 13 12 11 11 11 10 10 10 10
3 7 6 12 9 8 13 16 19 21 22 30 30 35 37 33 30 31 32 31 29 24 22 20 19 16 17 21 23 24 21 20 20 19 17 16 15 13 12 11 11 10 11 11
6 15 5 2 11 25 37 36 40 43 43 44 42 40 36 32 32 36 36 35 32 25 22 22 21 21 20 23 25 25 22 22 22 21 19 17 16 14 12 11 11 11 11 11
10 6 8 9 24 36 40 45 41 31 33 33 34 36 24 31 39 36 36 33 31 28 26 25 24 25 25 23 25 25 25 26 24 21 20 19 16 15 13 12 12 12 12 13
25 25 12 13 33 24 25 38 36 36 44 44 36 39 48 41 37 32 34 32 29 30 30 27 28 29 28 26 26 24 25 27 25 23 23 20 17 16 15 14 12 13 13 14
Wind_Direction
35 67 96 197 44 134 125 187 264 255 254 339 264 281 292 296 298 220 217 262 313 321 318 317 315 329 333 324 312 296 291 279 282 277 273 269 260 257 255 253 241 243 246 244
32 83 228 278 22 52 319 318 302 292 307 321 305 296 287 287 302 203 230 294 322 317 320 329 334 332 334 330 321 311 305 298 282 272 272 272 269 261 257 256 251 240 248 241
111 141 158 14 350 347 285 216 278 253 314 295 328 293 309 235 216 216 246 292 318 315 319 334 339 341 339 335 331 330 318 302 291 279 263 265 268 261 257 261 262 249 244 251
67 54 22 355 287 23 288 202 280 293 4 291 59 289 302 281 257 234 252 284 304 303 323 334 334 339 327 328 332 333 330 325 313 291 271 265 266 259 255 267 262 258 246 249
247 169 195 308 248 53 249 287 265 253 97 341 312 72 269 357 290 266 259 273 298 308 322 329 334 329 332 332 335 345 345 348 334 316 301 267 262 261 263 262 260 269 260 245
282 48 174 231 294 238 311 348 359 71 37 20 250 117 282 210 220 276 258 270 289 301 317 326 331 336 343 342 347 356 352 352 345 331 318 272 273 273 264 256 271 262 247 235
338 250 239 214 326 332 38 46 343 354 6 222 275 46 247 263 249 239 263 286 289 296 313 324 332 337 349 3 359 360 353 344 344 342 342 273 270 270 264 265 274 250 241 234
88 330 189 173 196 188 34 106 138 237 310 285 346 239 254 218 287 267 267 279 286 292 311 317 327 333 336 349 5 356 354 355 351 352 356 346 310 288 273 272 274 257 256 246
49 275 163 187 168 129 138 20 169 89 298 333 251 282 297 262 273 264 268 279 288 297 303 308 319 328 336 336 354 2 356 350 353 354 353 341 346 327 290 263 251 236 233 237
199 320 238 360 121 278 155 161 51 11 8 296 286 280 238 299 284 301 289 277 288 296 296 296 307 322 331 339 341 343 353 357 351 352 347 360 356 359 121 140 171 207 209 214
139 118 291 110 198 181 132 262 197 144 157 197 300 269 217 220 234 273 285 292 292 293 292 290 296 311 325 330 340 348 350 359 357 1 18 22 12 21 308 332 318 296 239 249
200 152 271 230 271 214 191 191 161 133 227 225 175 271 247 235 256 254 274 290 296 287 289 277 282 294 308 320 332 341 348 355 2 11 1 1 357 25 298 265 267 267 273 273
167 251 319 344 357 337 222 205 182 106 76 209 157 260 256 277 265 275 276 284 305 289 273 265 270 279 290 302 314 323 334 345 354 10 16 12 342 298 280 288 281 291 271 267
157 197 195 208 214 162 233 221 196 167 171 198 228 269 265 266 268 285 288 299 306 304 268 258 262 271 277 284 295 302 309 320 329 339 351 349 343 326 297 289 297 297 292 288
151 238 216 257 266 259 256 249 234 217 211 213 279 238 264 273 256 263 286 294 296 296 275 251 255 261 265 267 273 278 286 290 293 299 312 322 324 320 315 312 311 312 312 309
186 266 321 266 269 267 268 252 239 235 237 248 257 272 271 278 280 276 279 283 285 288 289 261 253 254 257 260 260 259 262 269 279 292 307 320 327 326 320 312 305 304 306 307
175 196 8 274 322 314 289 261 216 185 209 219 234 243 270 277 269 270 285 288 288 295 292 278 265 260 262 256 254 253 254 255 258 265 277 291 304 311 314 313 312 310 308 307
163 146 167 280 343 321 244 293 183 205 232 216 250 258 245 250 274 282 287 292 299 316 321 295 272 263 260 254 251 247 245 246 248 251 257 266 278 288 296 299 299 298 300 299
181 137 271 255 240 290 294 30 130 173 281 224 225 254 264 272 296 289 288 284 286 312 313 307 279 270 261 253 251 247 244 242 243 244 249 256 269 288 300 303 301 297 297 298
123 153 186 152 220 250 246 185 152 138 288 304 202 238 258 145 301 267 289 262 305 312 310 304 293 275 260 247 247 246 245 243 244 246 252 259 273 287 294 297 294 293 296 298
131 180 214 224 264 280 261 250 2 103 239 327 265 260 249 191 242 278 247 284 306 313 307 304 291 277 274 251 247 249 249 250 249 243 248 255 265 276 286 293 292 291 295 296
174 163 197 184 233 265 201 91 174 232 277 291 306 297 279 275 277 272 273 282 296 303 300 296 292 281 265 246 248 253 252 252 243 244 246 249 257 266 274 280 283 288 291 293
255 200 187 192 216 245 195 233 242 277 284 294 294 296 298 290 278 282 278 288 296 294 298 294 289 284 261 253 253 253 253 241 241 240 243 246 249 254 265 274 279 281 287 290
242 207 228 96 245 251 260 274 275 283 286 293 298 298 297 295 291 289 287 285 290 287 287 293 282 277 270 260 256 258 250 242 241 241 241 242 248 255 262 270 277 281 284 289
235 179 217 258 265 268 273 270 275 289 295 297 300 303 290 305 299 295 293 287 281 283 285 287 277 277 278 271 264 259 249 241 242 241 240 243 246 251 257 263 269 275 281 286
235 246 244 247 264 266 277 287 290 291 291 292 290 287 288 290 292 296 291 287 280 279 285 281 279 277 276 268 261 258 249 242 240 240 239 241 244 249 254 259 268 277 283 288
Height
1541 1552 1563 1553 1551 1552 1552 1555 1556 1549 1542 1541 1535 1527 1516 1510 1510 1510 1510 1510 1510 1507 1504 1502 1499 1495 1492 1489 1485 1482 1478 1476 1474 1472 1471 1471 1470 1470 1472 1473 1476 1477 1478 1481
1549 1558 1553 1551 1551 1551 1552 1553 1554 1545 1541 1542 1533 1522 1513 1509 1509 1509 1509 1509 1507 1504 1501 1499 1496 1493 1490 1486 1481 1477 1471 1467 1465 1465 1464 1464 1464 1464 1464 1467 1469 1471 1473 1476
1554 1554 1552 1551 1551 1551 1551 1553 1553 1556 1545 1539 1537 1524 1511 1509 1509 1509 1507 1506 1503 1501 1498 1496 1493 1491 1486 1481 1475 1468 1464 1460 1457 1456 1456 1458 1458 1458 1459 1462 1463 1465 1469 1471
1552 1552 1552 1552 1552 1552 1554 1549 1550 1551 1554 1560 1543 1545 1518 1510 1509 1507 1503 1502 1501 1500 1497 1494 1492 1488 1484 1479 1473 1466 1459 1454 1452 1451 1451 1452 1453 1453 1455 1458 1460 1461 1463 1465
1555 1554 1553 1553 1551 1550 1552 1548 1549 1549 1553 1549 1545 1563 1517 1511 1507 1501 1498 1498 1498 1496 1495 1492 1489 1485 1481 1476 1469 1463 1457 1453 1451 1449 1448 1448 1449 1450 1452 1454 1455 1458 1458 1460
1552 1552 1552 1551 1550 1550 1548 1549 1548 1548 1550 1572 1544 1552 1526 1518 1506 1497 1495 1495 1495 1494 1493 1490 1486 1482 1478 1473 1467 1461 1457 1453 1450 1448 1445 1445 1447 1448 1450 1451 1452 1456 1455 1455
1555 1551 1550 1550 1551 1549 1552 1564 1575 1564 1568 1556 1545 1555 1519 1502 1498 1495 1493 1491 1491 1491 1488 1486 1483 1479 1476 1472 1466 1461 1457 1454 1451 1447 1444 1444 1446 1447 1448 1448 1450 1453 1453 1453
1570 1566 1550 1548 1549 1553 1551 1559 1579 1571 1570 1562 1540 1545 1512 1495 1493 1491 1490 1488 1487 1487 1486 1484 1481 1478 1475 1471 1467 1462 1458 1454 1451 1448 1446 1445 1444 1444 1445 1446 1448 1450 1452 1452
1563 1554 1546 1546 1545 1547 1549 1562 1554 1567 1564 1565 1553 1526 1500 1492 1490 1488 1487 1486 1484 1484 1483 1481 1479 1476 1473 1470 1467 1463 1459 1456 1452 1449 1448 1446 1446 1445 1445 1446 1448 1449 1451 1452
1554 1564 1546 1545 1546 1547 1548 1551 1562 1573 1570 1563 1549 1538 1519 1498 1489 1486 1484 1482 1481 1480 1479 1478 1477 1474 1471 1468 1466 1463 1460 1457 1453 1451 1449 1447 1447 1447 1447 1447 1447 1448 1450 1451
1553 1560 1553 1547 1548 1548 1552 1553 1553 1556 1562 1566 1560 1529 1496 1491 1484 1483 1481 1479 1478 1476 1475 1475 1474 1473 1470 1468 1466 1463 1461 1458 1455 1452 1450 1449 1448 1448 1449 1449 1448 1448 1449 1451
1553 1560 1567 1549 1540 1540 1541 1543 1546 1561 1551 1556 1556 1525 1482 1481 1480 1478 1476 1475 1474 1473 1473 1472 1471 1469 1467 1465 1463 1462 1460 1457 1455 1453 1451 1449 1448 1448 1447 1446 1447 1448 1449 1449
1552 1560 1573 1551 1546 1540 1539 1537 1538 1544 1551 1551 1558 1514 1477 1477 1476 1474 1472 1471 1470 1468 1467 1467 1466 1465 1464 1462 1461 1460 1458 1457 1455 1454 1452 1450 1449 1448 1447 1446 1446 1446 1446 1446
1549 1556 1553 1559 1537 1537 1537 1533 1534 1538 1555 1541 1519 1489 1469 1473 1472 1468 1467 1466 1464 1462 1461 1461 1462 1461 1461 1460 1458 1458 1457 1456 1454 1453 1452 1450 1449 1449 1448 1447 1445 1445 1444 1444
1550 1555 1553 1545 1538 1536 1532 1529 1529 1533 1526 1524 1490 1492 1465 1468 1469 1464 1464 1462 1459 1457 1454 1455 1456 1456 1457 1456 1455 1455 1454 1453 1452 1451 1451 1450 1449 1448 1446 1445 1444 1443 1443 1443
1548 1550 1547 1545 1530 1531 1525 1517 1516 1513 1511 1506 1497 1488 1464 1462 1462 1461 1458 1457 1456 1453 1450 1449 1449 1449 1450 1451 1451 1451 1450 1450 1450 1450 1449 1448 1446 1445 1444 1443 1442 1442 1441 1440
1547 1549 1550 1541 1532 1527 1511 1491 1492 1497 1495 1491 1497 1462 1461 1458 1458 1455 1453 1453 1451 1447 1446 1445 1445 1445 1446 1446 1447 1447 1448 1447 1447 1447 1446 1446 1445 1445 1444 1443 1442 1440 1439 1438
1543 1546 1547 1545 1536 1532 1483 1482 1483 1486 1479 1476 1469 1458 1454 1451 1452 1451 1450 1449 1446 1445 1442 1440 1440 1441 1442 1443 1442 1443 1444 1444 1444 1444 1444 1444 1444 1443 1442 1441 1440 1439 1438 1436
1532 1541 1545 1547 1548 1510 1475 1471 1478 1480 1465 1456 1459 1453 1449 1452 1452 1443 1444 1444 1444 1442 1440 1438 1436 1436 1437 1437 1438 1438 1439 1440 1440 1441 1441 1442 1441 1441 1439 1438 1437 1436 1435 1433
1532 1534 1540 1549 1541 1517 1473 1469 1470 1471 1476 1450 1451 1449 1448 1452 1458 1444 1440 1441 1441 1439 1435 1433 1432 1431 1431 1432 1434 1434 1434 1434 1436 1437 1438 1439 1438 1437 1436 1435 1433 1432 1431 1430
1536 1538 1532 1537 1538 1511 1475 1472 1473 1477 1463 1447 1448 1448 1448 1449 1443 1438 1437 1436 1436 1433 1431 1429 1426 1425 1427 1429 1429 1429 1431 1431 1433 1433 1434 1434 1433 1433 1433 1432 1431 1429 1428 1426
1524 1531 1531 1531 1527 1518 1464 1471 1473 1452 1445 1445 1445 1445 1443 1439 1437 1435 1433 1432 1431 1428 1426 1424 1421 1420 1420 1422 1424 1425 1425 1427 1428 1428 1428 1427 1427 1428 1428 1427 1427 1426 1424 1423
1517 1502 1507 1503 1485 1460 1459 1453 1449 1447 1445 1443 1442 1440 1437 1434 1431 1429 1426 1425 1424 1423 1421 1419 1417 1415 1415 1416 1416 1416 1417 1419 1419 1420 1421 1422 1422 1421 1422 1422 1422 1421 1420 1419
1494 1487 1489 1487 1461 1452 1452 1447 1446 1445 1442 1439 1437 1432 1430 1426 1424 1422 1420 1418 1417 1416 1414 1414 1413 1411 1410 1409 1409 1409 1412 1413 1413 1414 1416 1416 1418 1418 1417 1417 1417 1416 1415 1414
1481 1479 1467 1466 1452 1444 1446 1440 1440 1437 1435 1432 1429 1426 1422 1420 1417 1415 1411 1409 1409 1408 1407 1406 1404 1403 1404 1405 1404 1405 1406 1407 1408 1410 1411 1412 1412 1412 1412 1412 1411 1410 1410 1409
1474 1456 1463 1445 1437 1439 1435 1434 1434 1432 1426 1422 1419 1416 1413 1411 1407 1405 1403 1401 1400 1399 1399 1397 1396 1394 1393 1395 1396 1397 1399 1401 1402 1404 1405 1406 1407 1409 1408 1407 1407 1406 1405 1404